2024-02-19T19:16:12Z,sbox04,777,777,777,777,777,777,24-02-19T19:16:08,2
2024-02-19T19:16:22Z,sbox04,777,777,777,777,777,777,24-02-19T19:16:19,3
2024-02-19T19:16:43Z,sbox04,777,777,777,777,777,777,24-02-19T19:16:40,5
2024-02-19T19:16:54Z,sbox04,777,777,777,777,777,777,24-02-19T19:16:50,6
2024-02-19T19:27:20Z,sbox04,777,777,777,777,777,777,24-02-19T19:27:16,1
2024-02-19T19:48:27Z,sbox04,777,777,777,777,777,777,24-02-19T19:48:24,1
2024-02-19T19:58:28Z,sbox04,777,777,777,777,777,777,24-02-19T19:58:24,2
2024-02-19T20:18:28Z,sbox04,777,777,777,777,777,777,24-02-19T20:18:24,4
2024-02-19T20:38:28Z,sbox04,777,777,777,777,777,777,24-02-19T20:38:24,6
2024-02-19T20:48:28Z,sbox04,777,777,777,777,777,777,24-02-19T20:48:24,7
2024-02-19T20:58:28Z,sbox04,777,777,777,777,777,777,24-02-19T20:58:24,8
2024-02-19T21:08:28Z,sbox04,777,777,777,777,777,777,24-02-19T21:08:24,9
2024-02-19T21:18:28Z,sbox04,777,777,777,777,777,777,24-02-19T21:18:24,10
2024-02-19T21:38:28Z,sbox04,777,777,777,777,777,777,24-02-19T21:38:24,12
2024-02-19T21:58:28Z,sbox04,777,777,777,777,777,777,24-02-19T21:58:25,14
2024-02-19T22:08:28Z,sbox04,777,777,777,777,777,777,24-02-19T22:08:25,15
2024-02-19T22:18:28Z,sbox04,777,777,777,777,777,777,24-02-19T22:18:25,16
2024-02-19T22:28:28Z,sbox04,777,777,777,777,777,777,24-02-19T22:28:25,17
2024-02-19T22:58:29Z,sbox04,777,777,777,777,777,777,24-02-19T22:58:25,20
2024-02-19T23:08:29Z,sbox04,777,777,777,777,777,777,24-02-19T23:08:25,21
2024-02-19T23:18:29Z,sbox04,777,777,777,777,777,777,24-02-19T23:18:25,22
2024-02-19T23:28:29Z,sbox04,777,777,777,777,777,777,24-02-19T23:28:25,23
2024-02-19T23:38:29Z,sbox04,777,777,777,777,777,777,24-02-19T23:38:25,24
2024-02-19T23:48:29Z,sbox04,777,777,777,777,777,777,24-02-19T23:48:25,25
2024-02-19T23:58:29Z,sbox04,777,777,777,777,777,777,24-02-19T23:58:25,26
2024-02-20T00:28:30Z,sbox04,777,777,777,777,777,777,24-02-20T00:28:26,2
2024-02-20T00:38:30Z,sbox04,777,777,777,777,777,777,24-02-20T00:38:26,3
2024-02-20T00:48:30Z,sbox04,777,777,777,777,777,777,24-02-20T00:48:26,4
2024-02-20T00:58:30Z,sbox04,777,777,777,777,777,777,24-02-20T00:58:26,5
2024-02-20T01:08:30Z,sbox04,777,777,777,777,777,777,24-02-20T01:08:26,6
2024-02-20T01:18:30Z,sbox04,777,777,777,777,777,777,24-02-20T01:18:26,7
2024-02-20T01:28:30Z,sbox04,777,777,777,777,777,777,24-02-20T01:28:26,8
2024-02-20T01:38:30Z,sbox04,777,777,777,777,777,777,24-02-20T01:38:26,9
2024-02-20T01:48:30Z,sbox04,777,777,777,777,777,777,24-02-20T01:48:26,10
2024-02-20T01:58:30Z,sbox04,777,777,777,777,777,777,24-02-20T01:58:26,11
2024-02-20T02:08:30Z,sbox04,777,777,777,777,777,777,24-02-20T02:08:26,12
2024-02-20T02:18:30Z,sbox04,777,777,777,777,777,777,24-02-20T02:18:27,13
2024-02-20T02:28:30Z,sbox04,777,777,777,777,777,777,24-02-20T02:28:27,14
2024-02-20T02:38:30Z,sbox04,777,777,777,777,777,777,24-02-20T02:38:27,15
2024-02-20T02:48:30Z,sbox04,777,777,777,777,777,777,24-02-20T02:48:27,16
2024-02-20T02:58:31Z,sbox04,777,777,777,777,777,777,24-02-20T02:58:27,17
2024-02-20T03:08:31Z,sbox04,777,777,777,777,777,777,24-02-20T03:08:27,18
2024-02-20T03:18:31Z,sbox04,777,777,777,777,777,777,24-02-20T03:18:27,19
2024-02-20T03:28:31Z,sbox04,777,777,777,777,777,777,24-02-20T03:28:27,20
2024-02-20T03:38:31Z,sbox04,777,777,777,777,777,777,24-02-20T03:38:27,21
2024-02-20T03:48:31Z,sbox04,777,777,777,777,777,777,24-02-20T03:48:27,22
2024-02-20T04:08:31Z,sbox04,777,777,777,777,777,777,24-02-20T04:08:27,24
2024-02-20T04:28:31Z,sbox04,777,777,777,777,777,777,24-02-20T04:28:27,26
2024-02-20T04:38:31Z,sbox04,777,777,777,777,777,777,24-02-20T04:38:27,27
2024-02-20T04:58:31Z,sbox04,777,777,777,777,777,777,24-02-20T04:58:28,29
2024-02-20T05:08:31Z,sbox04,777,777,777,777,777,777,24-02-20T05:08:28,30
2024-02-20T05:18:31Z,sbox04,777,777,777,777,777,777,24-02-20T05:18:28,31
2024-02-20T05:28:31Z,sbox04,777,777,777,777,777,777,24-02-20T05:28:28,32
2024-02-20T05:48:32Z,sbox04,777,777,777,777,777,777,24-02-20T05:48:28,34
2024-02-20T06:08:32Z,sbox04,777,777,777,777,777,777,24-02-20T06:08:28,36
2024-02-20T06:28:32Z,sbox04,777,777,777,777,777,777,24-02-20T06:28:28,38
2024-02-20T06:38:32Z,sbox04,777,777,777,777,777,777,24-02-20T06:38:28,39
2024-02-20T06:48:32Z,sbox04,777,777,777,777,777,777,24-02-20T06:48:28,40
2024-02-20T06:58:32Z,sbox04,777,777,777,777,777,777,24-02-20T06:58:28,41
2024-02-20T07:08:32Z,sbox04,777,777,777,777,777,777,24-02-20T07:08:28,42
2024-02-20T07:18:32Z,sbox04,777,777,777,777,777,777,24-02-20T07:18:28,43
2024-02-20T07:38:32Z,sbox04,777,777,777,777,777,777,24-02-20T07:38:29,45
2024-02-20T07:48:32Z,sbox04,777,777,777,777,777,777,24-02-20T07:48:29,46
2024-02-20T07:58:32Z,sbox04,777,777,777,777,777,777,24-02-20T07:58:29,47
2024-02-20T08:08:32Z,sbox04,777,777,777,777,777,777,24-02-20T08:08:29,48
2024-02-20T08:18:33Z,sbox04,777,777,777,777,777,777,24-02-20T08:18:29,49
2024-02-20T08:48:33Z,sbox04,777,777,777,777,777,777,24-02-20T08:48:29,52
2024-02-20T08:58:33Z,sbox04,777,777,777,777,777,777,24-02-20T08:58:29,53
2024-02-20T09:08:33Z,sbox04,777,777,777,777,777,777,24-02-20T09:08:29,54
2024-02-20T09:18:33Z,sbox04,777,777,777,777,777,777,24-02-20T09:18:29,55
2024-02-20T09:28:33Z,sbox04,777,777,777,777,777,777,24-02-20T09:28:29,56
2024-02-20T09:38:33Z,sbox04,777,777,777,777,777,777,24-02-20T09:38:29,57
2024-02-20T09:48:33Z,sbox04,777,777,777,777,777,777,24-02-20T09:48:29,58
2024-02-20T10:08:33Z,sbox04,777,777,777,777,777,777,24-02-20T10:08:30,60
2024-02-20T10:18:33Z,sbox04,777,777,777,777,777,777,24-02-20T10:18:30,61
2024-02-20T10:28:33Z,sbox04,777,777,777,777,777,777,24-02-20T10:28:30,62
2024-02-20T10:48:34Z,sbox04,777,777,777,777,777,777,24-02-20T10:48:30,64
2024-02-20T10:58:34Z,sbox04,777,777,777,777,777,777,24-02-20T10:58:30,65
2024-02-20T11:08:34Z,sbox04,777,777,777,777,777,777,24-02-20T11:08:30,66
2024-02-20T11:18:34Z,sbox04,777,777,777,777,777,777,24-02-20T11:18:30,67
2024-02-20T11:38:34Z,sbox04,777,777,777,777,777,777,24-02-20T11:38:30,69
2024-02-20T11:48:34Z,sbox04,777,777,777,777,777,777,24-02-20T11:48:30,70
2024-02-20T12:08:34Z,sbox04,777,777,777,777,777,777,24-02-20T12:08:30,72
2024-02-20T12:18:34Z,sbox04,777,777,777,777,777,777,24-02-20T12:18:30,73
2024-02-20T12:28:34Z,sbox04,777,777,777,777,777,777,24-02-20T12:28:30,74
2024-02-20T12:38:34Z,sbox04,777,777,777,777,777,777,24-02-20T12:38:30,75
2024-02-20T12:48:34Z,sbox04,777,777,777,777,777,777,24-02-20T12:48:31,76
2024-02-20T12:58:34Z,sbox04,777,777,777,777,777,777,24-02-20T12:58:31,77
2024-02-20T13:08:34Z,sbox04,777,777,777,777,777,777,24-02-20T13:08:31,78
2024-02-20T13:18:34Z,sbox04,777,777,777,777,777,777,24-02-20T13:18:31,79
2024-02-20T13:38:35Z,sbox04,777,777,777,777,777,777,24-02-20T13:38:31,81
2024-02-20T13:48:35Z,sbox04,777,777,777,777,777,777,24-02-20T13:48:31,82
2024-02-20T13:58:35Z,sbox04,777,777,777,777,777,777,24-02-20T13:58:31,83
2024-02-20T14:08:35Z,sbox04,777,777,777,777,777,777,24-02-20T14:08:31,84
2024-02-20T14:28:35Z,sbox04,777,777,777,777,777,777,24-02-20T14:28:31,86
2024-02-20T14:38:35Z,sbox04,777,777,777,777,777,777,24-02-20T14:38:31,87
2024-02-20T14:48:35Z,sbox04,777,777,777,777,777,777,24-02-20T14:48:31,88
2024-02-20T14:58:35Z,sbox04,777,777,777,777,777,777,24-02-20T14:58:31,89
2024-02-20T15:08:35Z,sbox04,777,777,777,777,777,777,24-02-20T15:08:31,90
2024-02-20T15:18:35Z,sbox04,777,777,777,777,777,777,24-02-20T15:18:32,91
2024-02-20T15:38:35Z,sbox04,777,777,777,777,777,777,24-02-20T15:38:32,93
2024-02-20T15:48:35Z,sbox04,777,777,777,777,777,777,24-02-20T15:48:32,94
2024-02-20T16:08:36Z,sbox04,777,777,777,777,777,777,24-02-20T16:08:32,96
2024-02-20T16:18:36Z,sbox04,777,777,777,777,777,777,24-02-20T16:18:32,97
2024-02-20T16:28:36Z,sbox04,777,777,777,777,777,777,24-02-20T16:28:32,98
2024-02-20T16:48:36Z,sbox04,777,777,777,777,777,777,24-02-20T16:48:32,100
2024-02-20T16:58:36Z,sbox04,777,777,777,777,777,777,24-02-20T16:58:32,101
2024-02-20T17:08:36Z,sbox04,777,777,777,777,777,777,24-02-20T17:08:32,102
2024-02-20T17:18:36Z,sbox04,777,777,777,777,777,777,24-02-20T17:18:32,103
2024-02-20T17:38:36Z,sbox04,777,777,777,777,777,777,24-02-20T17:38:32,105
2024-02-20T17:48:36Z,sbox04,777,777,777,777,777,777,24-02-20T17:48:32,106
2024-02-20T17:58:36Z,sbox04,777,777,777,777,777,777,24-02-20T17:58:33,107
2024-02-20T18:08:36Z,sbox04,777,777,777,777,777,777,24-02-20T18:08:33,108
2024-02-20T18:48:37Z,sbox04,777,777,777,777,777,777,24-02-20T18:48:33,112
2024-02-20T18:58:37Z,sbox04,777,777,777,777,777,777,24-02-20T18:58:33,113
2024-02-20T19:08:37Z,sbox04,777,777,777,777,777,777,24-02-20T19:08:33,114
2024-02-20T19:18:37Z,sbox04,777,777,777,777,777,777,24-02-20T19:18:33,115
2024-02-20T19:28:37Z,sbox04,777,777,777,777,777,777,24-02-20T19:28:33,116
2024-02-20T19:38:37Z,sbox04,777,777,777,777,777,777,24-02-20T19:38:33,117
2024-02-20T19:48:37Z,sbox04,777,777,777,777,777,777,24-02-20T19:48:33,118
2024-02-20T19:58:37Z,sbox04,777,777,777,777,777,777,24-02-20T19:58:34,119
2024-02-20T20:08:37Z,sbox04,777,777,777,777,777,777,24-02-20T20:08:33,120
2024-02-20T20:18:37Z,sbox04,777,777,777,777,777,777,24-02-20T20:18:34,121
2024-02-20T20:28:37Z,sbox04,777,777,777,777,777,777,24-02-20T20:28:33,122
2024-02-20T20:38:37Z,sbox04,777,777,777,777,777,777,24-02-20T20:38:34,123
2024-02-20T20:48:37Z,sbox04,777,777,777,777,777,777,24-02-20T20:48:34,124
2024-02-20T20:58:37Z,sbox04,777,777,777,777,777,777,24-02-20T20:58:34,125
2024-02-20T21:08:37Z,sbox04,777,777,777,777,777,777,24-02-20T21:08:34,126
2024-02-20T21:18:37Z,sbox04,777,777,777,777,777,777,24-02-20T21:18:34,127
2024-02-20T21:28:38Z,sbox04,777,777,777,777,777,777,24-02-20T21:28:34,128
2024-02-20T21:38:38Z,sbox04,777,777,777,777,777,777,24-02-20T21:38:34,129
2024-02-20T21:48:38Z,sbox04,777,777,777,777,777,777,24-02-20T21:48:34,130
2024-02-20T22:08:38Z,sbox04,777,777,777,777,777,777,24-02-20T22:08:34,132
2024-02-20T22:18:38Z,sbox04,777,777,777,777,777,777,24-02-20T22:18:34,133
2024-02-20T22:28:38Z,sbox04,777,777,777,777,777,777,24-02-20T22:28:34,134
2024-02-20T22:38:38Z,sbox04,777,777,777,777,777,777,24-02-20T22:38:34,135
2024-02-20T22:58:38Z,sbox04,777,777,777,777,777,777,24-02-20T22:58:34,137
2024-02-20T23:08:38Z,sbox04,777,777,777,777,777,777,24-02-20T23:08:34,138
2024-02-20T23:18:38Z,sbox04,777,777,777,777,777,777,24-02-20T23:18:35,139
2024-02-20T23:28:38Z,sbox04,777,777,777,777,777,777,24-02-20T23:28:35,140
2024-02-20T23:38:38Z,sbox04,777,777,777,777,777,777,24-02-20T23:38:35,141
2024-02-20T23:48:38Z,sbox04,777,777,777,777,777,777,24-02-20T23:48:35,142
2024-02-20T23:58:39Z,sbox04,777,777,777,777,777,777,24-02-20T23:58:35,143
2024-02-21T00:18:39Z,sbox04,777,777,777,777,777,777,24-02-21T00:18:35,1
2024-02-21T00:38:39Z,sbox04,777,777,777,777,777,777,24-02-21T00:38:35,3
2024-02-21T00:48:39Z,sbox04,777,777,777,777,777,777,24-02-21T00:48:36,4
2024-02-21T00:58:39Z,sbox04,777,777,777,777,777,777,24-02-21T00:58:36,5
2024-02-21T01:08:39Z,sbox04,777,777,777,777,777,777,24-02-21T01:08:36,6
2024-02-21T01:18:39Z,sbox04,777,777,777,777,777,777,24-02-21T01:18:36,7
2024-02-21T01:38:39Z,sbox04,777,777,777,777,777,777,24-02-21T01:38:36,9
2024-02-21T01:48:40Z,sbox04,777,777,777,777,777,777,24-02-21T01:48:36,10
2024-02-21T01:58:40Z,sbox04,777,777,777,777,777,777,24-02-21T01:58:36,11
2024-02-21T02:18:40Z,sbox04,777,777,777,777,777,777,24-02-21T02:18:36,13
2024-02-21T02:28:40Z,sbox04,777,777,777,777,777,777,24-02-21T02:28:36,14
2024-02-21T02:38:40Z,sbox04,777,777,777,777,777,777,24-02-21T02:38:36,15
2024-02-21T02:48:40Z,sbox04,777,777,777,777,777,777,24-02-21T02:48:36,16
2024-02-21T02:58:40Z,sbox04,777,777,777,777,777,777,24-02-21T02:58:36,17
2024-02-21T03:18:40Z,sbox04,777,777,777,777,777,777,24-02-21T03:18:36,19
2024-02-21T03:28:40Z,sbox04,777,777,777,777,777,777,24-02-21T03:28:36,20
2024-02-21T03:58:40Z,sbox04,777,777,777,777,777,777,24-02-21T03:58:37,23
2024-02-21T04:08:40Z,sbox04,777,777,777,777,777,777,24-02-21T04:08:37,24
2024-02-21T04:18:40Z,sbox04,777,777,777,777,777,777,24-02-21T04:18:37,25
2024-02-21T04:28:41Z,sbox04,777,777,777,777,777,777,24-02-21T04:28:37,26
2024-02-21T04:38:41Z,sbox04,777,777,777,777,777,777,24-02-21T04:38:37,27
2024-02-21T04:58:41Z,sbox04,777,777,777,777,777,777,24-02-21T04:58:37,29
2024-02-21T05:08:41Z,sbox04,777,777,777,777,777,777,24-02-21T05:08:37,30
2024-02-21T05:18:41Z,sbox04,777,777,777,777,777,777,24-02-21T05:18:37,31
2024-02-21T05:28:41Z,sbox04,777,777,777,777,777,777,24-02-21T05:28:37,32
2024-02-21T05:48:41Z,sbox04,777,777,777,777,777,777,24-02-21T05:48:37,34
2024-02-21T05:58:41Z,sbox04,777,777,777,777,777,777,24-02-21T05:58:37,35
2024-02-21T06:08:41Z,sbox04,777,777,777,777,777,777,24-02-21T06:08:37,36
2024-02-21T06:18:41Z,sbox04,777,777,777,777,777,777,24-02-21T06:18:38,37
2024-02-21T06:28:41Z,sbox04,777,777,777,777,777,777,24-02-21T06:28:38,38
2024-02-21T06:58:42Z,sbox04,777,777,777,777,777,777,24-02-21T06:58:38,41
2024-02-21T07:08:42Z,sbox04,777,777,777,777,777,777,24-02-21T07:08:38,42
2024-02-21T07:18:42Z,sbox04,777,777,777,777,777,777,24-02-21T07:18:38,43
2024-02-21T07:28:42Z,sbox04,777,777,777,777,777,777,24-02-21T07:28:38,44
2024-02-21T07:38:42Z,sbox04,777,777,777,777,777,777,24-02-21T07:38:38,45
2024-02-21T07:48:42Z,sbox04,777,777,777,777,777,777,24-02-21T07:48:38,46
2024-02-21T07:58:42Z,sbox04,777,777,777,777,777,777,24-02-21T07:58:38,47
2024-02-21T08:08:42Z,sbox04,777,777,777,777,777,777,24-02-21T08:08:38,48
2024-02-21T08:18:42Z,sbox04,777,777,777,777,777,777,24-02-21T08:18:38,49
2024-02-21T08:28:42Z,sbox04,777,777,777,777,777,777,24-02-21T08:28:38,50
2024-02-21T08:38:42Z,sbox04,777,777,777,777,777,777,24-02-21T08:38:38,51
2024-02-21T08:48:42Z,sbox04,777,777,777,777,777,777,24-02-21T08:48:38,52
2024-02-21T09:08:42Z,sbox04,777,777,777,777,777,777,24-02-21T09:08:39,54
2024-02-21T09:28:42Z,sbox04,777,777,777,777,777,777,24-02-21T09:28:39,56
2024-02-21T09:48:43Z,sbox04,777,777,777,777,777,777,24-02-21T09:48:39,58
2024-02-21T09:58:43Z,sbox04,777,777,777,777,777,777,24-02-21T09:58:39,59
2024-02-21T10:08:43Z,sbox04,777,777,777,777,777,777,24-02-21T10:08:39,60
2024-02-21T10:18:43Z,sbox04,777,777,777,777,777,777,24-02-21T10:18:39,61
2024-02-21T10:38:43Z,sbox04,777,777,777,777,777,777,24-02-21T10:38:39,63
2024-02-21T10:48:43Z,sbox04,777,777,777,777,777,777,24-02-21T10:48:39,64
2024-02-21T10:58:43Z,sbox04,777,777,777,777,777,777,24-02-21T10:58:39,65
2024-02-21T11:18:43Z,sbox04,777,777,777,777,777,777,24-02-21T11:18:39,67
2024-02-21T11:28:43Z,sbox04,777,777,777,777,777,777,24-02-21T11:28:39,68
2024-02-21T11:48:43Z,sbox04,777,777,777,777,777,777,24-02-21T11:48:40,70
2024-02-21T11:58:43Z,sbox04,777,777,777,777,777,777,24-02-21T11:58:40,71
2024-02-21T12:08:43Z,sbox04,777,777,777,777,777,777,24-02-21T12:08:40,72
2024-02-21T12:18:43Z,sbox04,777,777,777,777,777,777,24-02-21T12:18:40,73
2024-02-21T12:28:44Z,sbox04,777,777,777,777,777,777,24-02-21T12:28:40,74
2024-02-21T12:38:44Z,sbox04,777,777,777,777,777,777,24-02-21T12:38:40,75
2024-02-21T12:48:44Z,sbox04,777,777,777,777,777,777,24-02-21T12:48:40,76
2024-02-21T12:58:44Z,sbox04,777,777,777,777,777,777,24-02-21T12:58:40,77
2024-02-21T13:08:44Z,sbox04,777,777,777,777,777,777,24-02-21T13:08:40,78
2024-02-21T13:18:44Z,sbox04,777,777,777,777,777,777,24-02-21T13:18:40,79
2024-02-21T13:28:44Z,sbox04,777,777,777,777,777,777,24-02-21T13:28:40,80
2024-02-21T13:38:44Z,sbox04,777,777,777,777,777,777,24-02-21T13:38:40,81
2024-02-21T13:48:44Z,sbox04,777,777,777,777,777,777,24-02-21T13:48:40,82
2024-02-21T14:18:44Z,sbox04,777,777,777,777,777,777,24-02-21T14:18:41,85
2024-02-21T14:48:44Z,sbox04,777,777,777,777,777,777,24-02-21T14:48:41,88
2024-02-21T14:58:45Z,sbox04,777,777,777,777,777,777,24-02-21T14:58:41,89
2024-02-21T15:18:45Z,sbox04,777,777,777,777,777,777,24-02-21T15:18:41,91
2024-02-21T15:28:45Z,sbox04,777,777,777,777,777,777,24-02-21T15:28:41,92
2024-02-21T15:38:45Z,sbox04,777,777,777,777,777,777,24-02-21T15:38:41,93
2024-02-21T15:48:45Z,sbox04,777,777,777,777,777,777,24-02-21T15:48:41,94
2024-02-21T15:58:45Z,sbox04,777,777,777,777,777,777,24-02-21T15:58:41,95
2024-02-21T16:08:45Z,sbox04,777,777,777,777,777,777,24-02-21T16:08:41,96
2024-02-21T16:18:45Z,sbox04,777,777,777,777,777,777,24-02-21T16:18:41,97
2024-02-21T16:28:45Z,sbox04,777,777,777,777,777,777,24-02-21T16:28:41,98
2024-02-21T16:38:45Z,sbox04,777,777,777,777,777,777,24-02-21T16:38:41,99
2024-02-21T16:48:45Z,sbox04,777,777,777,777,777,777,24-02-21T16:48:41,100
2024-02-21T17:18:45Z,sbox04,777,777,777,777,777,777,24-02-21T17:18:42,103
2024-02-21T17:28:45Z,sbox04,777,777,777,777,777,777,24-02-21T17:28:42,104
2024-02-21T17:38:45Z,sbox04,777,777,777,777,777,777,24-02-21T17:38:42,105
2024-02-21T17:48:46Z,sbox04,777,777,777,777,777,777,24-02-21T17:48:42,106
2024-02-21T17:58:46Z,sbox04,777,777,777,777,777,777,24-02-21T17:58:42,107
2024-02-21T18:38:46Z,sbox04,777,777,777,777,777,777,24-02-21T18:38:42,111
2024-02-21T18:58:46Z,sbox04,777,777,777,777,777,777,24-02-21T18:58:42,113
2024-02-21T19:08:46Z,sbox04,777,777,777,777,777,777,24-02-21T19:08:42,114
2024-02-21T19:18:46Z,sbox04,777,777,777,777,777,777,24-02-21T19:18:42,115
2024-02-21T19:38:46Z,sbox04,777,777,777,777,777,777,24-02-21T19:38:43,117
2024-02-21T19:48:46Z,sbox04,777,777,777,777,777,777,24-02-21T19:48:43,118
2024-02-21T19:58:46Z,sbox04,777,777,777,777,777,777,24-02-21T19:58:43,119
2024-02-21T20:08:46Z,sbox04,777,777,777,777,777,777,24-02-21T20:08:43,120
2024-02-21T20:18:46Z,sbox04,777,777,777,777,777,777,24-02-21T20:18:43,121
2024-02-21T20:28:47Z,sbox04,777,777,777,777,777,777,24-02-21T20:28:43,122
2024-02-21T20:38:47Z,sbox04,777,777,777,777,777,777,24-02-21T20:38:43,123
2024-02-21T20:48:47Z,sbox04,777,777,777,777,777,777,24-02-21T20:48:43,124
2024-02-21T21:08:47Z,sbox04,777,777,777,777,777,777,24-02-21T21:08:43,126
2024-02-21T21:18:47Z,sbox04,777,777,777,777,777,777,24-02-21T21:18:43,127
2024-02-21T21:28:47Z,sbox04,777,777,777,777,777,777,24-02-21T21:28:43,128
2024-02-21T21:38:47Z,sbox04,777,777,777,777,777,777,24-02-21T21:38:43,129
2024-02-21T21:48:47Z,sbox04,777,777,777,777,777,777,24-02-21T21:48:43,130
2024-02-21T21:58:47Z,sbox04,777,777,777,777,777,777,24-02-21T21:58:43,131
2024-02-21T22:08:47Z,sbox04,777,777,777,777,777,777,24-02-21T22:08:43,132
2024-02-21T22:18:47Z,sbox04,777,777,777,777,777,777,24-02-21T22:18:44,133
2024-02-21T22:28:47Z,sbox04,777,777,777,777,777,777,24-02-21T22:28:44,134
2024-02-21T22:58:47Z,sbox04,777,777,777,777,777,777,24-02-21T22:58:44,137
2024-02-21T23:08:48Z,sbox04,777,777,777,777,777,777,24-02-21T23:08:44,138
2024-02-21T23:18:48Z,sbox04,777,777,777,777,777,777,24-02-21T23:18:44,139
2024-02-21T23:48:48Z,sbox04,777,777,777,777,777,777,24-02-21T23:48:44,142
2024-02-21T23:58:48Z,sbox04,777,777,777,777,777,777,24-02-21T23:58:44,143
2024-02-22T00:18:48Z,sbox04,777,777,777,777,777,777,24-02-22T00:18:45,1
2024-02-22T00:38:48Z,sbox04,777,777,777,777,777,777,24-02-22T00:38:45,3
2024-02-22T00:48:48Z,sbox04,777,777,777,777,777,777,24-02-22T00:48:45,4
2024-02-22T00:58:49Z,sbox04,777,777,777,777,777,777,24-02-22T00:58:45,5
2024-02-22T01:08:49Z,sbox04,777,777,777,777,777,777,24-02-22T01:08:45,6
2024-02-22T01:18:49Z,sbox04,777,777,777,777,777,777,24-02-22T01:18:45,7
2024-02-28T20:29:30Z,sbox04,777,777,777,777,777,777,24-02-28T20:29:26,12
2024-02-28T20:39:30Z,sbox04,777,777,777,777,777,777,24-02-28T20:39:27,13
2024-02-28T20:49:31Z,sbox04,777,777,777,777,777,777,24-02-28T20:49:27,14
2024-02-28T20:59:31Z,sbox04,777,777,777,777,777,777,24-02-28T20:59:27,15
2024-02-28T21:09:30Z,sbox04,777,777,777,777,777,777,24-02-28T21:09:27,16
2024-02-28T21:19:30Z,sbox04,777,777,777,777,777,777,24-02-28T21:19:27,17
2024-02-28T21:29:30Z,sbox04,777,777,777,777,777,777,24-02-28T21:29:27,18
2024-02-28T21:39:30Z,sbox04,777,777,777,777,777,777,24-02-28T21:39:27,19
2024-02-28T21:49:30Z,sbox04,777,777,777,777,777,777,24-02-28T21:49:27,20
2024-02-28T21:59:31Z,sbox04,777,777,777,777,777,777,24-02-28T21:59:27,21
2024-02-28T22:09:31Z,sbox04,777,777,777,777,777,777,24-02-28T22:09:27,22
2024-02-28T22:19:31Z,sbox04,777,777,777,777,777,777,24-02-28T22:19:27,23
2024-02-28T22:29:31Z,sbox04,777,777,777,777,777,777,24-02-28T22:29:27,24
2024-02-28T22:39:31Z,sbox04,777,777,777,777,777,777,24-02-28T22:39:27,25
2024-02-28T22:49:31Z,sbox04,777,777,777,777,777,777,24-02-28T22:49:27,26
2024-02-28T22:59:31Z,sbox04,777,777,777,777,777,777,24-02-28T22:59:27,27
2024-02-28T23:09:31Z,sbox04,777,777,777,777,777,777,24-02-28T23:09:27,28
2024-02-28T23:19:31Z,sbox04,777,777,777,777,777,777,24-02-28T23:19:28,29
2024-02-28T23:29:31Z,sbox04,777,777,777,777,777,777,24-02-28T23:29:28,30
2024-02-28T23:49:31Z,sbox04,777,777,777,777,777,777,24-02-28T23:49:28,32
2024-02-28T23:59:31Z,sbox04,777,777,777,777,777,777,24-02-28T23:59:28,33
2024-02-29T00:19:32Z,sbox04,777,777,777,777,777,777,24-02-29T00:19:28,1
2024-02-29T00:29:32Z,sbox04,777,777,777,777,777,777,24-02-29T00:29:28,2
2024-02-29T00:49:32Z,sbox04,777,777,777,777,777,777,24-02-29T00:49:28,4
2024-02-29T00:59:32Z,sbox04,777,777,777,777,777,777,24-02-29T00:59:29,5
2024-02-29T01:09:32Z,sbox04,777,777,777,777,777,777,24-02-29T01:09:29,6
2024-02-29T01:19:32Z,sbox04,777,777,777,777,777,777,24-02-29T01:19:29,7
2024-02-29T01:29:32Z,sbox04,777,777,777,777,777,777,24-02-29T01:29:29,8
2024-02-29T01:39:32Z,sbox04,777,777,777,777,777,777,24-02-29T01:39:29,9
2024-02-29T01:59:32Z,sbox04,777,777,777,777,777,777,24-02-29T01:59:29,11
2024-02-29T02:19:33Z,sbox04,777,777,777,777,777,777,24-02-29T02:19:29,13
2024-02-29T02:39:33Z,sbox04,777,777,777,777,777,777,24-02-29T02:39:29,15
2024-02-29T02:49:33Z,sbox04,777,777,777,777,777,777,24-02-29T02:49:29,16
2024-02-29T02:59:33Z,sbox04,777,777,777,777,777,777,24-02-29T02:59:29,17
2024-02-29T03:19:33Z,sbox04,777,777,777,777,777,777,24-02-29T03:19:29,19
2024-02-29T03:29:33Z,sbox04,777,777,777,777,777,777,24-02-29T03:29:29,20
2024-02-29T03:39:33Z,sbox04,777,777,777,777,777,777,24-02-29T03:39:30,21
2024-02-29T03:49:33Z,sbox04,777,777,777,777,777,777,24-02-29T03:49:30,22
2024-02-29T03:59:33Z,sbox04,777,777,777,777,777,777,24-02-29T03:59:30,23
2024-02-29T04:19:33Z,sbox04,777,777,777,777,777,777,24-02-29T04:19:30,25
2024-02-29T04:29:33Z,sbox04,777,777,777,777,777,777,24-02-29T04:29:30,26
2024-02-29T04:39:33Z,sbox04,777,777,777,777,777,777,24-02-29T04:39:30,27
2024-02-29T04:49:33Z,sbox04,777,777,777,777,777,777,24-02-29T04:49:30,28
2024-02-29T05:09:34Z,sbox04,777,777,777,777,777,777,24-02-29T05:09:30,30
2024-02-29T05:19:34Z,sbox04,777,777,777,777,777,777,24-02-29T05:19:30,31
2024-02-29T05:29:34Z,sbox04,777,777,777,777,777,777,24-02-29T05:29:30,32
2024-02-29T05:39:34Z,sbox04,777,777,777,777,777,777,24-02-29T05:39:30,33
2024-02-29T05:49:34Z,sbox04,777,777,777,777,777,777,24-02-29T05:49:30,34
2024-02-29T05:59:34Z,sbox04,777,777,777,777,777,777,24-02-29T05:59:30,35
2024-02-29T06:29:34Z,sbox04,777,777,777,777,777,777,24-02-29T06:29:31,38
2024-02-29T06:49:34Z,sbox04,777,777,777,777,777,777,24-02-29T06:49:31,40
2024-02-29T06:59:34Z,sbox04,777,777,777,777,777,777,24-02-29T06:59:31,41
2024-02-29T07:09:34Z,sbox04,777,777,777,777,777,777,24-02-29T07:09:31,42
2024-02-29T07:19:34Z,sbox04,777,777,777,777,777,777,24-02-29T07:19:31,43
2024-02-29T07:29:34Z,sbox04,777,777,777,777,777,777,24-02-29T07:29:31,44
2024-02-29T07:39:34Z,sbox04,777,777,777,777,777,777,24-02-29T07:39:31,45
2024-02-29T07:49:35Z,sbox04,777,777,777,777,777,777,24-02-29T07:49:31,46
2024-02-29T07:59:35Z,sbox04,777,777,777,777,777,777,24-02-29T07:59:31,47
2024-02-29T08:19:35Z,sbox04,777,777,777,777,777,777,24-02-29T08:19:31,49
2024-02-29T08:29:35Z,sbox04,777,777,777,777,777,777,24-02-29T08:29:31,50
2024-02-29T08:39:35Z,sbox04,777,777,777,777,777,777,24-02-29T08:39:31,51
2024-02-29T08:49:35Z,sbox04,777,777,777,777,777,777,24-02-29T08:49:31,52
2024-02-29T08:59:35Z,sbox04,777,777,777,777,777,777,24-02-29T08:59:32,53
2024-02-29T09:09:35Z,sbox04,777,777,777,777,777,777,24-02-29T09:09:32,54